Wetterdaten: aktuell Montag, 23.09.2019 02:46
Datum Zeit Temp. I. Temp. 2m Temp. 5cm Temp. -10cm Feuchte I. Feuchte 2m Luftdruck Regen Wind Richtung Richtung Taupunkt Windchill Windben
23.09.2019 02:46 18,9 C 7,9 C 7,4 C 15,7 C 55 % 87 % 1014,3 hPa 0,0 l/m 1,4 km/h (1 Bft) NW 315 5,9 C 7,9 C 4,2 km/h (1 Bft)
23.09.2019 02:44 18,9 C 7,9 C 7,0 C 15,7 C 55 % 87 % 1014,3 hPa 0,0 l/m 1,0 km/h (0 Bft) NW 315 5,9 C 7,9 C 2,9 km/h (1 Bft)
23.09.2019 02:42 18,9 C 7,9 C 7,0 C 15,7 C 55 % 87 % 1014,3 hPa 0,0 l/m 1,0 km/h (0 Bft) NW 315 5,9 C 7,9 C 2,9 km/h (1 Bft)
23.09.2019 02:40 18,9 C 7,8 C 7,1 C 15,7 C 55 % 87 % 1014,4 hPa 0,0 l/m 1,0 km/h (0 Bft) S-SW 202 5,8 C 7,8 C 2,7 km/h (1 Bft)
23.09.2019 02:38 19,0 C 7,8 C 7,4 C 15,7 C 55 % 87 % 1014,4 hPa 0,0 l/m 1,4 km/h (1 Bft) W 270 5,8 C 7,8 C 0,0 km/h (0 Bft)
23.09.2019 02:36 18,9 C 7,8 C 7,5 C 15,7 C 55 % 87 % 1014,4 hPa 0,0 l/m 1,6 km/h (1 Bft) W 270 5,8 C 7,8 C 0,0 km/h (0 Bft)
23.09.2019 02:34 19,0 C 7,8 C 7,5 C 15,7 C 55 % 87 % 1014,4 hPa 0,0 l/m 1,6 km/h (1 Bft) W 270 5,8 C 7,8 C 3,5 km/h (1 Bft)
23.09.2019 02:32 19,0 C 7,9 C 7,6 C 15,7 C 55 % 87 % 1014,4 hPa 0,0 l/m 1,6 km/h (1 Bft) W-SW 247 5,9 C 7,9 C 3,9 km/h (1 Bft)
23.09.2019 02:30 19,0 C 7,9 C 7,6 C 15,8 C 55 % 87 % 1014,4 hPa 0,0 l/m 1,1 km/h (1 Bft) W-NW 292 5,9 C 7,9 C 3,9 km/h (1 Bft)
23.09.2019 02:28 19,0 C 8,0 C 7,5 C 15,8 C 56 % 86 % 1014,4 hPa 0,0 l/m 0,8 km/h (0 Bft) W-SW 247 5,8 C 8,0 C 3,5 km/h (1 Bft)
23.09.2019 02:26 19,0 C 8,3 C 7,8 C 15,8 C 56 % 86 % 1014,4 hPa 0,0 l/m 0,3 km/h (0 Bft) W-SW 247 6,1 C 8,3 C 0,0 km/h (0 Bft)
23.09.2019 02:24 19,0 C 8,3 C 8,2 C 15,8 C 56 % 86 % 1014,4 hPa 0,0 l/m 0,3 km/h (0 Bft) W-SW 247 6,1 C 8,3 C 2,7 km/h (1 Bft)
23.09.2019 02:22 19,0 C 8,4 C 8,9 C 15,8 C 56 % 86 % 1014,4 hPa 0,0 l/m 0,3 km/h (0 Bft) W-SW 247 6,2 C 8,4 C 2,7 km/h (1 Bft)
23.09.2019 02:20 19,0 C 8,5 C 8,2 C 15,8 C 56 % 86 % 1014,4 hPa 0,0 l/m 0,0 km/h (0 Bft) N-NW 337 6,3 C 8,5 C 0,0 km/h (0 Bft)
23.09.2019 02:18 19,0 C 8,5 C 8,6 C 15,8 C 56 % 86 % 1014,4 hPa 0,0 l/m 0,0 km/h (0 Bft) N-NW 337 6,3 C 8,5 C 0,0 km/h (0 Bft)
23.09.2019 02:16 19,0 C 8,6 C 8,6 C 15,8 C 56 % 86 % 1014,4 hPa 0,0 l/m 0,0 km/h (0 Bft) N-NW 337 6,4 C 8,6 C 0,0 km/h (0 Bft)
23.09.2019 02:14 19,0 C 8,6 C 8,7 C 15,8 C 56 % 86 % 1014,4 hPa 0,0 l/m 0,2 km/h (0 Bft) N-NW 337 6,4 C 8,6 C 0,0 km/h (0 Bft)
23.09.2019 02:12 19,0 C 8,5 C 8,5 C 15,8 C 56 % 86 % 1014,4 hPa 0,0 l/m 0,2 km/h (0 Bft) N-NW 337 6,3 C 8,5 C 0,0 km/h (0 Bft)
23.09.2019 02:10 19,0 C 8,5 C 8,2 C 15,8 C 56 % 86 % 1014,4 hPa 0,0 l/m 0,3 km/h (0 Bft) NW 315 6,3 C 8,5 C 0,0 km/h (0 Bft)
23.09.2019 02:08 19,1 C 8,5 C 8,1 C 15,8 C 56 % 86 % 1014,4 hPa 0,0 l/m 0,6 km/h (0 Bft) NW 315 6,3 C 8,5 C 0,0 km/h (0 Bft)
23.09.2019 02:06 19,0 C 8,6 C 7,9 C 15,8 C 56 % 86 % 1014,4 hPa 0,0 l/m 0,8 km/h (0 Bft) NW 315 6,4 C 8,6 C 2,5 km/h (1 Bft)
23.09.2019 02:04 19,0 C 8,6 C 8,0 C 15,8 C 56 % 86 % 1014,4 hPa 0,0 l/m 0,6 km/h (0 Bft) NW 315 6,4 C 8,6 C 2,5 km/h (1 Bft)
23.09.2019 02:02 19,1 C 8,6 C 8,0 C 15,8 C 56 % 86 % 1014,4 hPa 0,0 l/m 0,5 km/h (0 Bft) N-NW 337 6,4 C 8,6 C 0,0 km/h (0 Bft)
23.09.2019 02:00 19,1 C 8,6 C 8,1 C 15,8 C 56 % 86 % 1014,4 hPa 0,0 l/m 0,8 km/h (0 Bft) N-NW 337 6,4 C 8,6 C 1,9 km/h (1 Bft)
23.09.2019 01:58 19,1 C 8,6 C 8,5 C 15,9 C 56 % 86 % 1014,4 hPa 0,0 l/m 0,8 km/h (0 Bft) N-NW 337 6,4 C 8,6 C 1,9 km/h (1 Bft)
23.09.2019 01:56 19,1 C 8,5 C 8,5 C 15,9 C 56 % 86 % 1014,4 hPa 0,0 l/m 1,0 km/h (0 Bft) N-NW 337 6,3 C 8,5 C 0,0 km/h (0 Bft)
23.09.2019 01:54 19,1 C 8,4 C 8,6 C 15,9 C 56 % 86 % 1014,4 hPa 0,0 l/m 1,4 km/h (1 Bft) N-NW 337 6,2 C 8,4 C 0,0 km/h (0 Bft)
23.09.2019 01:52 19,1 C 8,4 C 8,6 C 15,9 C 56 % 86 % 1014,4 hPa 0,0 l/m 2,3 km/h (1 Bft) N-NW 337 6,2 C 8,4 C 2,7 km/h (1 Bft)
23.09.2019 01:50 19,1 C 8,4 C 8,7 C 15,9 C 56 % 86 % 1014,4 hPa 0,0 l/m 2,6 km/h (1 Bft) N-NW 337 6,2 C 8,4 C 3,3 km/h (1 Bft)
23.09.2019 01:48 19,1 C 8,4 C 8,8 C 15,9 C 56 % 86 % 1014,4 hPa 0,0 l/m 3,1 km/h (1 Bft) NW 315 6,2 C 8,4 C 3,3 km/h (1 Bft)
23.09.2019 01:46 19,1 C 8,4 C 9,1 C 15,9 C 56 % 86 % 1014,4 hPa 0,0 l/m 3,4 km/h (1 Bft) W-NW 292 6,2 C 8,4 C 4,2 km/h (1 Bft)
23.09.2019 01:44 19,1 C 8,3 C 9,1 C 15,9 C 56 % 86 % 1014,4 hPa 0,0 l/m 3,2 km/h (1 Bft) W-NW 292 6,1 C 8,3 C 5,4 km/h (1 Bft)
23.09.2019 01:42 19,1 C 8,1 C 8,6 C 15,9 C 56 % 86 % 1014,4 hPa 0,0 l/m 2,7 km/h (1 Bft) W-NW 292 5,9 C 8,1 C 5,4 km/h (1 Bft)
23.09.2019 01:40 19,2 C 8,1 C 8,5 C 15,9 C 55 % 86 % 1014,2 hPa 0,0 l/m 2,1 km/h (1 Bft) W-NW 292 5,9 C 8,1 C 5,4 km/h (1 Bft)
23.09.2019 01:38 19,2 C 8,1 C 8,5 C 15,9 C 56 % 86 % 1014,2 hPa 0,0 l/m 1,6 km/h (1 Bft) W 270 5,9 C 8,1 C 4,1 km/h (1 Bft)
23.09.2019 01:36 19,2 C 8,0 C 8,5 C 15,9 C 56 % 86 % 1014,2 hPa 0,0 l/m 1,1 km/h (1 Bft) W-SW 247 5,8 C 8,0 C 3,9 km/h (1 Bft)
23.09.2019 01:34 19,2 C 7,9 C 8,1 C 15,9 C 56 % 86 % 1014,2 hPa 0,0 l/m 1,0 km/h (0 Bft) W-SW 247 5,7 C 7,9 C 3,9 km/h (1 Bft)
23.09.2019 01:32 19,2 C 7,9 C 7,8 C 15,9 C 56 % 86 % 1014,2 hPa 0,0 l/m 1,1 km/h (1 Bft) W-NW 292 5,7 C 7,9 C 2,3 km/h (1 Bft)
23.09.2019 01:30 19,2 C 7,9 C 7,9 C 15,9 C 56 % 86 % 1014,2 hPa 0,0 l/m 1,1 km/h (1 Bft) W-NW 292 5,7 C 7,9 C 2,5 km/h (1 Bft)
23.09.2019 01:28 19,2 C 7,9 C 7,8 C 15,9 C 56 % 86 % 1014,2 hPa 0,0 l/m 1,1 km/h (1 Bft) W-NW 292 5,7 C 7,9 C 2,5 km/h (1 Bft)
23.09.2019 01:26 19,2 C 8,0 C 7,9 C 15,9 C 56 % 86 % 1014,2 hPa 0,0 l/m 1,1 km/h (1 Bft) NW 315 5,8 C 8,0 C 3,3 km/h (1 Bft)
23.09.2019 01:24 19,2 C 8,0 C 7,8 C 15,9 C 56 % 86 % 1014,2 hPa 0,0 l/m 1,1 km/h (1 Bft) N-NW 337 5,8 C 8,0 C 3,5 km/h (1 Bft)
23.09.2019 01:22 19,2 C 8,0 C 7,7 C 15,9 C 56 % 86 % 1014,2 hPa 0,0 l/m 0,8 km/h (0 Bft) NW 315 5,8 C 8,0 C 2,9 km/h (1 Bft)
23.09.2019 01:20 19,2 C 8,1 C 7,7 C 15,9 C 56 % 86 % 1014,1 hPa 0,0 l/m 0,6 km/h (0 Bft) NW 315 5,9 C 8,1 C 1,9 km/h (1 Bft)
23.09.2019 01:18 19,2 C 8,1 C 7,5 C 15,9 C 56 % 86 % 1014,1 hPa 0,0 l/m 0,6 km/h (0 Bft) N-NW 337 5,9 C 8,1 C 2,9 km/h (1 Bft)
23.09.2019 01:16 19,2 C 8,3 C 7,6 C 15,9 C 56 % 86 % 1014,1 hPa 0,0 l/m 0,3 km/h (0 Bft) NW 315 6,1 C 8,3 C 2,9 km/h (1 Bft)
23.09.2019 01:14 19,2 C 8,3 C 7,7 C 15,9 C 56 % 86 % 1014,1 hPa 0,0 l/m 0,3 km/h (0 Bft) NW 315 6,1 C 8,3 C 1,9 km/h (1 Bft)
23.09.2019 01:12 19,2 C 8,4 C 7,7 C 15,9 C 56 % 86 % 1014,1 hPa 0,0 l/m 0,2 km/h (0 Bft) NW 315 6,2 C 8,4 C 1,9 km/h (1 Bft)
23.09.2019 01:10 19,2 C 8,5 C 7,8 C 15,9 C 56 % 86 % 1014,1 hPa 0,0 l/m 0,0 km/h (0 Bft) NW 315 6,3 C 8,5 C 0,0 km/h (0 Bft)
23.09.2019 01:08 19,2 C 8,5 C 8,1 C 15,9 C 56 % 86 % 1014,1 hPa 0,0 l/m 0,0 km/h (0 Bft) W-NW 292 6,3 C 8,5 C 0,0 km/h (0 Bft)
23.09.2019 01:06 19,2 C 8,5 C 8,1 C 15,9 C 56 % 86 % 1014,1 hPa 0,0 l/m 0,0 km/h (0 Bft) W-NW 292 6,3 C 8,5 C 0,0 km/h (0 Bft)
23.09.2019 01:04 19,3 C 8,6 C 7,8 C 15,9 C 56 % 86 % 1014,1 hPa 0,0 l/m 0,0 km/h (0 Bft) W-NW 292 6,4 C 8,6 C 0,0 km/h (0 Bft)
23.09.2019 01:02 19,2 C 8,7 C 7,9 C 15,9 C 56 % 86 % 1014,1 hPa 0,0 l/m 0,0 km/h (0 Bft) W-NW 292 6,5 C 8,7 C 0,0 km/h (0 Bft)
23.09.2019 01:00 19,2 C 8,7 C 8,1 C 15,9 C 56 % 86 % 1013,9 hPa 0,0 l/m 0,0 km/h (0 Bft) W-NW 292 6,5 C 8,7 C 0,0 km/h (0 Bft)
23.09.2019 00:58 19,3 C 8,7 C 8,3 C 15,9 C 56 % 86 % 1013,9 hPa 0,0 l/m 0,0 km/h (0 Bft) W-NW 292 6,5 C 8,7 C 0,0 km/h (0 Bft)
23.09.2019 00:56 19,2 C 8,8 C 8,3 C 15,9 C 56 % 86 % 1013,9 hPa 0,0 l/m 0,0 km/h (0 Bft) W-NW 292 6,6 C 8,8 C 0,0 km/h (0 Bft)
23.09.2019 00:54 19,2 C 8,8 C 8,3 C 16,1 C 56 % 86 % 1013,9 hPa 0,0 l/m 0,0 km/h (0 Bft) W-NW 292 6,6 C 8,8 C 0,0 km/h (0 Bft)
23.09.2019 00:52 19,2 C 8,8 C 8,3 C 16,1 C 56 % 86 % 1013,9 hPa 0,0 l/m 0,0 km/h (0 Bft) W-NW 292 6,6 C 8,8 C 0,0 km/h (0 Bft)
23.09.2019 00:50 19,3 C 8,9 C 8,4 C 16,1 C 56 % 86 % 1013,9 hPa 0,0 l/m 0,0 km/h (0 Bft) W-NW 292 6,7 C 8,9 C 0,0 km/h (0 Bft)
23.09.2019 00:48 19,2 C 8,9 C 8,5 C 16,1 C 56 % 86 % 1013,9 hPa 0,0 l/m 0,0 km/h (0 Bft) W-NW 292 6,7 C 8,9 C 0,0 km/h (0 Bft)
23.09.2019 00:46 19,2 C 8,9 C 8,5 C 16,1 C 56 % 86 % 1013,9 hPa 0,0 l/m 0,0 km/h (0 Bft) W-NW 292 6,7 C 8,9 C 0,0 km/h (0 Bft)
23.09.2019 00:44 19,2 C 8,8 C 8,3 C 16,1 C 56 % 85 % 1013,9 hPa 0,0 l/m 0,0 km/h (0 Bft) W-NW 292 6,4 C 8,8 C 0,0 km/h (0 Bft)
23.09.2019 00:42 19,2 C 8,9 C 8,3 C 16,1 C 56 % 85 % 1013,9 hPa 0,0 l/m 0,0 km/h (0 Bft) W-NW 292 6,5 C 8,9 C 0,0 km/h (0 Bft)
23.09.2019 00:40 19,2 C 8,9 C 8,3 C 16,1 C 56 % 85 % 1014,1 hPa 0,0 l/m 0,3 km/h (0 Bft) W-NW 292 6,5 C 8,9 C 0,0 km/h (0 Bft)
23.09.2019 00:38 19,2 C 8,9 C 8,1 C 16,1 C 56 % 85 % 1014,1 hPa 0,0 l/m 0,5 km/h (0 Bft) W-NW 292 6,5 C 8,9 C 0,0 km/h (0 Bft)
23.09.2019 00:36 19,2 C 8,9 C 8,2 C 16,1 C 56 % 85 % 1014,1 hPa 0,0 l/m 1,0 km/h (0 Bft) W-NW 292 6,5 C 8,9 C 0,0 km/h (0 Bft)
23.09.2019 00:34 19,2 C 9,0 C 8,3 C 16,1 C 56 % 85 % 1014,1 hPa 0,0 l/m 1,3 km/h (1 Bft) W-NW 292 6,6 C 9,0 C 0,0 km/h (0 Bft)
23.09.2019 00:32 19,4 C 9,1 C 8,4 C 16,1 C 56 % 85 % 1014,1 hPa 0,0 l/m 1,4 km/h (1 Bft) W-NW 292 6,7 C 9,1 C 2,5 km/h (1 Bft)
23.09.2019 00:30 19,2 C 9,1 C 8,4 C 16,1 C 56 % 85 % 1014,1 hPa 0,0 l/m 1,8 km/h (1 Bft) W-NW 292 6,7 C 9,1 C 2,5 km/h (1 Bft)
23.09.2019 00:28 19,4 C 9,1 C 8,4 C 16,1 C 56 % 85 % 1014,1 hPa 0,0 l/m 1,6 km/h (1 Bft) W-NW 292 6,7 C 9,1 C 3,1 km/h (1 Bft)
23.09.2019 00:26 19,4 C 9,1 C 8,5 C 16,2 C 56 % 85 % 1014,1 hPa 0,0 l/m 1,4 km/h (1 Bft) W 270 6,7 C 9,1 C 3,1 km/h (1 Bft)
23.09.2019 00:24 19,4 C 9,1 C 8,6 C 16,2 C 56 % 85 % 1014,1 hPa 0,0 l/m 1,0 km/h (0 Bft) W-SW 247 6,7 C 9,1 C 2,7 km/h (1 Bft)
23.09.2019 00:22 19,4 C 9,1 C 8,4 C 16,2 C 56 % 85 % 1014,1 hPa 0,0 l/m 0,8 km/h (0 Bft) W-NW 292 6,7 C 9,1 C 3,1 km/h (1 Bft)
23.09.2019 00:20 19,4 C 9,1 C 8,3 C 16,2 C 56 % 85 % 1014,1 hPa 0,0 l/m 0,5 km/h (0 Bft) W 270 6,7 C 9,1 C 3,1 km/h (1 Bft)
23.09.2019 00:18 19,4 C 9,2 C 8,4 C 16,2 C 56 % 85 % 1014,1 hPa 0,0 l/m 0,3 km/h (0 Bft) W 270 6,8 C 9,2 C 2,1 km/h (1 Bft)
23.09.2019 00:16 19,4 C 9,1 C 8,4 C 16,2 C 56 % 85 % 1014,1 hPa 0,0 l/m 0,5 km/h (0 Bft) N-NW 337 6,7 C 9,1 C 0,0 km/h (0 Bft)
23.09.2019 00:14 19,4 C 9,1 C 8,2 C 16,2 C 56 % 85 % 1014,1 hPa 0,0 l/m 1,0 km/h (0 Bft) N-NW 337 6,7 C 9,1 C 0,0 km/h (0 Bft)
23.09.2019 00:12 19,4 C 9,0 C 8,2 C 16,2 C 56 % 85 % 1014,1 hPa 0,0 l/m 0,0 km/h (0 Bft) W-NW 292 6,6 C 9,0 C 0,0 km/h (0 Bft)
23.09.2019 00:10 19,4 C 9,0 C 8,3 C 16,2 C 56 % 85 % 1014,1 hPa 0,0 l/m 0,0 km/h (0 Bft) W-NW 292 6,6 C 9,0 C 0,0 km/h (0 Bft)
23.09.2019 00:08 19,4 C 9,0 C 8,3 C 16,2 C 56 % 85 % 1014,1 hPa 0,0 l/m 0,0 km/h (0 Bft) W-NW 292 6,6 C 9,0 C 0,0 km/h (0 Bft)
23.09.2019 00:06 19,4 C 9,0 C 8,3 C 16,2 C 56 % 85 % 1014,1 hPa 0,0 l/m 0,0 km/h (0 Bft) W-NW 292 6,6 C 9,0 C 0,0 km/h (0 Bft)
23.09.2019 00:04 19,4 C 9,0 C 8,3 C 16,2 C 56 % 85 % 1014,1 hPa 0,0 l/m 0,0 km/h (0 Bft) W-NW 292 6,6 C 9,0 C 0,0 km/h (0 Bft)
23.09.2019 00:02 19,4 C 9,0 C 8,3 C 16,2 C 56 % 85 % 1014,1 hPa 0,0 l/m 0,0 km/h (0 Bft) W-NW 292 6,6 C 9,0 C 0,0 km/h (0 Bft)
23.09.2019 00:00 19,4 C 8,9 C 8,1 C 16,2 C 56 % 85 % 1014,3 hPa 0,0 l/m 0,0 km/h (0 Bft) W-NW 292 6,5 C 8,9 C 0,0 km/h (0 Bft)
_ Min-Zeit 02:36 02:34 02:42 02:32 01:40 00:00 00:42 - 00:00 - - 01:28 02:34 00:00
Minimum _ 18,9 C 7,8 C 7,0 C 15,7 C 55 % 85 % 1013,9 hPa - 0,0 km/h (0 Bft) - - 5,7 C 7,8 C 0,0 km/h (0 Bft)
_ Max-Zeit 00:00 00:18 01:44 00:00 00:00 02:30 01:42 00:00 01:46 - - 00:18 00:18 01:40
Maximum _ 19,4 C 9,2 C 9,1 C 16,2 C 56 % 87 % 1014,4 hPa 0,0 l/m 3,4 km/h
W-NW (1 Bft)
- - 6,8 C 9,2 C 5,4 km/h
W-NW (1 Bft)
Durchschnitt _ 19,2 C 8,5 C 8,1 C 15,9 C 56 % 86 % 1014,2 hPa #0,0 l/m 0,8 km/h (0 Bft) W-NW - 6,3 C 8,5 C 1,6 km/h (1 Bft)